Location: Buckenweiler
(49.0667°N, 10.2500°E)
Time: 23:37:12
(UTC+00:00)

Cosmos 2297 Rocket - Pass Details

Date: 18 January 2026
Orbit: 838 x 843 km, 71.0° (Epoch: 16 February)

Event Time Altitude Azimuth Distance (km) Brightness Sun altitude
Exits shadow 06:13:25 - 335° (NNW) 3,388 4.9 -8.5°
Reaches altitude 10° 06:16:43 10° 355° (N) 2,475 4.4 -8.0°
Maximum altitude 06:20:22 17° 35° (NE) 2,014 4.3 -7.4°
Drops below altitude 10° 06:24:00 10° 75° (ENE) 2,467 5.5 -6.9°
Sets 06:27:21 0° 96° (E) 3,398 7.0 -6.4°
